Location: Newark
(41.6500°N, 71.4833°W)
Time: 06:43:45
(UTC+00:00)

Transit 2A Rocket - Pass Details

Date: 26 January 2020
Orbit: 591 x 912 km, 66.7° (Epoch: 27 February)

Event Time Altitude Azimuth Distance (km) Brightness Sun altitude
Rises 17:04:58 0° 342° (NNW) 2,992 7.6 29.6°
Reaches altitude 10° 17:07:50 10° 1° (N) 2,131 6.9 29.6°
Maximum altitude 17:11:16 19° 46° (NE) 1,672 6.5 29.6°
Drops below altitude 10° 17:14:54 10° 91° (E) 2,272 7.5 29.5°
Sets 17:18:04 0° 109° (ESE) 3,263 8.4 29.5°
